Anchorage Merrill, AK

9:26 AM AKDT on September 26, 2017 (GMT -0800)
Merrill

Weather History for PAMR - September, 2012

Change the Weather History Date:

Monday, September 3, 2012

  Actual Average Record
Temperature  
Mean Temperature 54 °F -  
Max Temperature 61 °F 59 °F 68 °F (2016)
Min Temperature 48 °F 44 °F 39 °F (2002)
Degree Days  
Heating Degree Days 10    
Growing Degree Days 4 (Base 50)    
Moisture  
Dew Point 48 °F    
Average Humidity 85    
Maximum Humidity 97    
Minimum Humidity 56    
Precipitation  
Precipitation 0.15 in - - ()
Sea Level Pressure  
Sea Level Pressure 29.59 in    
Wind  
Wind Speed 5 mph (West)    
Max Wind Speed 14 mph    
Max Gust Speed 26 mph    
Visibility 10 miles    
Events Rain    
Averages and records for this station are not official NWS values.
T = Trace of Precipitation, MM = Missing Value Source: NWS Daily Summary

Daily Weather History Graph

Daily Weather History Graph

Search for Another Location

Airport or City:

Trip Planner

Search our weather history database for the weather conditions in past years. The results will help you decide how hot, cold, wet, or windy it might be!

Date:

Astronomy

Sep. 03, 2012 Rise Set
Actual Time 6:57 AM AKDT 8:57 PM AKDT
Civil Twilight 6:11 AM AKDT 9:43 PM AKDT
Nautical Twilight 5:11 AM AKDT 10:43 PM AKDT
Astronomical Twilight 3:52 AM AKDT 11:59 PM AKDT
Moon 9:00 PM AKDT (9/3) 11:32 AM AKDT (9/3)
Length of Visible Light 15h 32m
Length of Day
13h 59m
Waning Gibbous, 89% of the Moon is Illuminated
Sep 3
Waning Gibbous
Sep 8
Last Quarter
Sep 15
New
Sep 22
First Quarter
Sep 29
Full

Hourly Weather History & Observations

Time (AKDT) Temp. Dew Point Humidity Pressure Visibility Wind Dir Wind Speed Gust Speed Precip Events Conditions
12:53 AM 50.0 °F 48.9 °F 96% 29.62 in 10.0 mi Calm Calm - 0.00 in Rain Light Rain
1:29 AM 50.0 °F 48.2 °F 94% 29.61 in 10.0 mi West 4.6 mph - 0.00 in Rain Light Rain
1:53 AM 50.0 °F 48.0 °F 93% 29.60 in 10.0 mi NW 5.8 mph - 0.00 in   Overcast
2:53 AM 48.9 °F 46.9 °F 93% 29.59 in 10.0 mi NNW 9.2 mph - N/A   Overcast
3:53 AM 48.9 °F 48.0 °F 97% 29.57 in 10.0 mi WNW 4.6 mph - 0.01 in   Overcast
4:53 AM 48.9 °F 46.9 °F 93% 29.55 in 10.0 mi WNW 4.6 mph - N/A   Overcast
5:53 AM 48.9 °F 46.9 °F 93% 29.54 in 10.0 mi WNW 4.6 mph - 0.00 in Rain Light Rain
6:53 AM 48.0 °F 46.9 °F 96% 29.53 in 10.0 mi WNW 6.9 mph - 0.00 in   Overcast
7:53 AM 48.9 °F 48.0 °F 97% 29.51 in 10.0 mi WNW 6.9 mph - N/A   Overcast
8:53 AM 50.0 °F 46.9 °F 89% 29.51 in 10.0 mi West 3.5 mph - N/A   Overcast
9:53 AM 51.1 °F 46.9 °F 86% 29.50 in 10.0 mi NW 6.9 mph - N/A   Mostly Cloudy
10:53 AM 52.0 °F 46.9 °F 83% 29.50 in 10.0 mi NNE 4.6 mph - N/A   Mostly Cloudy
11:53 AM 55.0 °F 48.9 °F 80% 29.52 in 10.0 mi NNW 4.6 mph - N/A   Mostly Cloudy
12:53 PM 61.0 °F 45.0 °F 56% 29.54 in 10.0 mi South 12.7 mph 26.5 mph N/A   Overcast
1:53 PM 57.9 °F 52.0 °F 81% 29.55 in 10.0 mi West 13.8 mph 21.9 mph N/A   Overcast
2:53 PM 57.0 °F 50.0 °F 77% 29.57 in 10.0 mi West 8.1 mph - N/A   Overcast
3:53 PM 55.9 °F 48.9 °F 77% 29.60 in 10.0 mi West 8.1 mph - N/A   Overcast
4:53 PM 55.9 °F 48.9 °F 77% 29.61 in 10.0 mi SSW 3.5 mph - N/A   Overcast
5:53 PM 57.0 °F 48.0 °F 72% 29.62 in 10.0 mi Calm Calm - N/A   Overcast
6:53 PM 53.1 °F 50.0 °F 89% 29.65 in 5.0 mi SW 5.8 mph - 0.03 in Rain Light Rain
7:53 PM 52.0 °F 50.0 °F 93% 29.68 in 7.0 mi SE 6.9 mph - 0.10 in Rain Light Rain
8:53 PM 52.0 °F 48.0 °F 86% 29.69 in 10.0 mi SSE 3.5 mph - 0.01 in Rain Light Rain
9:53 PM 52.0 °F 46.9 °F 83% 29.71 in 10.0 mi South 4.6 mph - 0.00 in   Mostly Cloudy
10:53 PM 50.0 °F 46.0 °F 86% 29.74 in 10.0 mi SSE 4.6 mph - 0.00 in   Mostly Cloudy
11:53 PM 53.1 °F 43.0 °F 69% 29.76 in 10.0 mi South 5.8 mph - N/A   Mostly Cloudy